This demonstration page uses our WeatherBlox Daily Observations layout. Learn more.

Left ArrowRight Arrow

Hourly Observations for May 31, 2020

Temp ( °F °C ) Dew Point ( °F °C ) Humidity (%) Winds ( mph kmh ) Pressure ( in mb ) Visibility ( mi km ) Precip ( " mm )
12:15 am 00:15 Clear 68 20 52 11 56 56 N 18 30 30.04 1017 10 16 N/A
12:35 am 00:35 Clear 66 19 50 10 56 56 N 14 22 30.04 1017 10 16 N/A
12:55 am 00:55 Clear 64 18 50 10 60 60 N 9 15 30.06 1018 10 16 N/A
1:15 am 01:15 Clear 64 18 46 8 52 52 N 10 17 30.06 1018 10 16 N/A
1:35 am 01:35 Clear 64 18 45 7 49 49 NNE 8 13 30.07 1018 10 16 N/A
1:55 am 01:55 Clear 63 17 43 6 49 49 N 13 20 30.08 1018 10 16 N/A
2:15 am 02:15 Clear 63 17 43 6 49 49 N 17 28 30.07 1018 10 16 N/A
2:35 am 02:35 Clear 63 17 45 7 52 52 N 14 22 30.08 1018 10 16 N/A
2:55 am 02:55 Clear 61 16 43 6 52 52 NNW 15 24 30.08 1019 10 16 N/A
3:15 am 03:15 Clear 61 16 43 6 52 52 N 12 19 30.08 1019 10 16 N/A
3:35 am 03:35 Clear 59 15 43 6 55 55 N 7 11 30.09 1019 10 16 N/A
3:55 am 03:55 Clear 59 15 43 6 55 55 N 6 9 30.10 1019 10 16 N/A
4:15 am 04:15 Clear 59 15 43 6 55 55 NNW 9 15 30.10 1019 10 16 N/A
4:35 am 04:35 Clear 55 13 45 7 67 67 NNW 6 9 30.10 1019 10 16 N/A
4:55 am 04:55 Clear 55 13 45 7 67 67 NNW 6 9 30.10 1019 10 16 N/A
5:15 am 05:15 Clear 54 12 45 7 72 72 NNW 6 9 30.11 1020 10 16 N/A
5:35 am 05:35 Clear 54 12 45 7 72 72 NNW 5 7 30.12 1020 10 16 N/A
5:55 am 05:55 Sunny 54 12 43 6 67 67 N N/A 30.13 1020 10 16 N/A
6:15 am 06:15 Sunny 54 12 43 6 67 67 N N/A 30.13 1020 10 16 N/A
6:35 am 06:35 Sunny 55 13 43 6 63 63 N N/A 30.14 1021 10 16 N/A
6:55 am 06:55 Sunny 55 13 45 7 67 67 N N/A 30.14 1021 10 16 N/A
7:15 am 07:15 Sunny 57 14 43 6 59 59 N 7 11 30.16 1021 10 16 N/A
7:35 am 07:35 Sunny 59 15 43 6 55 55 NNE 5 7 30.16 1021 10 16 N/A
7:55 am 07:55 Sunny 59 15 43 6 55 55 NE 6 9 30.17 1022 10 16 N/A
8:15 am 08:15 Sunny 61 16 45 7 55 55 NE 5 7 30.17 1022 10 16 N/A
8:35 am 08:35 Sunny 61 16 45 7 55 55 N 10 17 30.18 1022 10 16 N/A
8:55 am 08:55 Sunny 63 17 45 7 52 52 N 12 19 30.19 1022 10 16 N/A
9:15 am 09:15 Sunny 63 17 45 7 52 52 NNE 12 19 30.19 1022 10 16 N/A
9:35 am 09:35 Sunny 63 17 45 7 52 52 N 9 15 30.19 1022 10 16 N/A
9:55 am 09:55 Sunny 64 18 45 7 49 49 N 14 22 30.17 1022 10 16 N/A
10:15 am 10:15 Sunny 64 18 43 6 46 46 N 10 17 30.17 1022 10 16 N/A
10:35 am 10:35 Sunny 64 18 43 6 46 46 N 13 20 30.18 1022 10 16 N/A
11:15 am 11:15 Partly Cloudy 66 19 45 7 46 46 N 9 15 30.18 1022 10 16 N/A
11:35 am 11:35 Partly Cloudy 66 19 45 7 46 46 N 13 20 30.18 1022 10 16 N/A
11:55 am 11:55 Mostly Cloudy 68 20 45 7 43 43 NNW 12 19 30.17 1022 10 16 N/A
12:15 pm 12:15 Partly Cloudy 68 20 46 8 46 46 N 13 20 30.17 1022 10 16 N/A
12:35 pm 12:35 Partly Cloudy 68 20 46 8 46 46 NW 7 11 30.17 1022 10 16 N/A
12:55 pm 12:55 Mostly Cloudy 68 20 46 8 46 46 N 14 22 30.16 1021 10 16 N/A
1:15 pm 13:15 Partly Cloudy 68 20 46 8 46 46 NW 7 11 30.15 1021 10 16 N/A
1:35 pm 13:35 Partly Cloudy 68 20 45 7 43 43 NW 8 13 30.15 1021 10 16 N/A
1:55 pm 13:55 Partly Cloudy 70 21 45 7 40 40 WNW 9 15 30.14 1021 10 16 N/A
2:15 pm 14:15 Partly Cloudy 72 22 46 8 41 41 NW 10 17 30.13 1020 10 16 N/A
2:35 pm 14:35 Partly Cloudy 70 21 45 7 40 40 N 8 13 30.13 1020 10 16 N/A
2:55 pm 14:55 Partly Cloudy 70 21 45 7 40 40 NNE 7 11 30.12 1020 10 16 N/A
3:15 pm 15:15 Partly Cloudy 70 21 45 7 40 40 NNW 5 7 30.13 1020 10 16 N/A
3:35 pm 15:35 Mostly Cloudy 72 22 46 8 41 41 NNW 10 17 30.12 1020 10 16 N/A
3:55 pm 15:55 Mostly Cloudy 70 21 43 6 38 38 NNW 7 11 30.12 1020 10 16 N/A
4:15 pm 16:15 Mostly Cloudy 72 22 45 7 38 38 N 8 13 30.11 1020 10 16 N/A
4:35 pm 16:35 Mostly Cloudy 73 23 45 7 36 36 NNW 13 20 30.11 1020 10 16 N/A
4:55 pm 16:55 Partly Cloudy 73 23 45 7 36 36 N 15 24 30.10 1019 10 16 N/A
5:15 pm 17:15 Partly Cloudy 73 23 43 6 33 33 N 15 24 30.10 1019 10 16 N/A
5:35 pm 17:35 Sunny 72 22 43 6 36 36 NNW 15 24 30.10 1019 10 16 N/A
5:55 pm 17:55 Partly Cloudy 72 22 43 6 36 36 N 12 19 30.10 1019 10 16 N/A
6:15 pm 18:15 Partly Cloudy 72 22 43 6 36 36 N 13 20 30.10 1019 10 16 N/A
6:35 pm 18:35 Sunny 72 22 43 6 36 36 NNW 13 20 30.10 1019 10 16 N/A
6:55 pm 18:55 Sunny 70 21 41 5 35 35 NNW 9 15 30.10 1019 10 16 N/A
7:15 pm 19:15 Sunny 70 21 41 5 35 35 N 8 13 30.11 1020 10 16 N/A
7:35 pm 19:35 Sunny 70 21 41 5 35 35 N 7 11 30.12 1020 10 16 N/A
7:55 pm 19:55 Sunny 68 20 41 5 38 38 N 9 15 30.12 1020 10 16 N/A
8:15 pm 20:15 Sunny 68 20 41 5 38 38 N 10 17 30.13 1020 10 16 N/A
8:35 pm 20:35 Clear 64 18 41 5 43 43 NNW 9 15 30.14 1021 10 16 N/A
8:55 pm 20:55 Clear 64 18 39 4 40 40 NNW 7 11 30.15 1021 10 16 N/A
9:15 pm 21:15 Clear 63 17 39 4 42 42 N 7 11 30.17 1022 10 16 N/A
9:35 pm 21:35 Clear 63 17 39 4 42 42 N 3 6 30.18 1022 10 16 N/A
9:55 pm 21:55 Clear 61 16 41 5 48 48 N 5 7 30.19 1022 10 16 N/A
10:15 pm 22:15 Clear 61 16 39 4 45 45 N 6 9 30.20 1023 10 16 N/A
10:35 pm 22:35 Clear 59 15 41 5 51 51 NNW 8 13 30.20 1023 10 16 N/A
10:55 pm 22:55 Clear 59 15 39 4 48 48 N 8 13 30.21 1023 10 16 N/A
11:15 pm 23:15 Clear 59 15 41 5 51 51 NNW 7 11 30.21 1023 10 16 N/A
11:35 pm 23:35 Clear 57 14 41 5 55 55 NNW 7 11 30.22 1023 10 16 N/A
11:55 pm 23:55 Clear 55 13 41 5 59 59 NW 9 15 30.22 1023 10 16 N/A

Powered by AerisWeather